When you browse on this site, cookies collect data to enhance your experience and personalize the content and advertising you see.
Visit our Privacy Policy to learn more. By continuing to use the site, you agree to this use of cookies and data.
  • In United Kingdom
  • List of Countries
  • For 7 days
  • Water Temperature
  • Satellite Maps
  • Weather Map
  • Weather Widgets
  • user-avatar
    Login

    Hourly Weather Kubla-Ustyurt

    Today, 20 January, Sunday

    Time Temperature Precipitation Wind Pressure Humidity
    00:00 -4°C° 0 mm 5 mps 743 mmHg 92%
    01:00 -3°C° 0 mm 4 mps 743 mmHg 92%
    02:00 -4°C° 0 mm 5 mps 744 mmHg 91%
    03:00 -4°C° 0 mm 5 mps 744 mmHg 90%
    04:00 -4°C° 0 mm 6 mps 744 mmHg 88%
    05:00 -4°C° 0 mm 6 mps 745 mmHg 88%
    06:00 -4°C° 0 mm 6 mps 745 mmHg 88%
    07:00 -4°C° 0 mm 6 mps 746 mmHg 87%
    08:00 -5°C° 0 mm 6 mps 746 mmHg 87%
    09:00 -6°C° 0 mm 7 mps 747 mmHg 87%
    10:00 -6°C° 0 mm 7 mps 747 mmHg 88%
    11:00 -6°C° 0 mm 7 mps 748 mmHg 86%
    12:00 -6°C° 0 mm 7 mps 748 mmHg 84%
    13:00 -6°C° 0 mm 7 mps 748 mmHg 81%
    14:00 -4°C° 0 mm 7 mps 749 mmHg 84%
    15:00 -4°C° 0 mm 6 mps 749 mmHg 86%
    16:00 -3°C° 0 mm 6 mps 750 mmHg 88%
    17:00 -3°C° 0 mm 6 mps 750 mmHg 90%
    18:00 -3°C° 0 mm 6 mps 750 mmHg 91%
    19:00 -3°C° 0 mm 6 mps 751 mmHg 93%
    20:00 -3°C° 0 mm 6 mps 751 mmHg 93%
    21:00 -3°C° 0 mm 6 mps 751 mmHg 92%
    22:00 -3°C° 0 mm 6 mps 752 mmHg 92%
    23:00 -3°C° 0 mm 6 mps 752 mmHg 93%

    Tomorrow, 21 January, Monday

    Time Temperature Precipitation Wind Pressure Humidity
    00:00 -2°C° 0 mm 5 mps 752 mmHg 93%
    01:00 -4°C° 0 mm 5 mps 753 mmHg 93%
    02:00 -4°C° 0 mm 5 mps 753 mmHg 94%
    03:00 -2°C° 0 mm 4 mps 754 mmHg 94%
    04:00 -2°C° 0 mm 4 mps 754 mmHg 94%
    05:00 -2°C° 0 mm 3 mps 754 mmHg 94%
    06:00 -2°C° 0 mm 3 mps 755 mmHg 94%
    07:00 -2°C° 0 mm 2 mps 755 mmHg 94%
    08:00 -2°C° 0 mm 2 mps 755 mmHg 91%
    09:00 -2°C° 0 mm 2 mps 756 mmHg 89%
    10:00 -2°C° 0 mm 2 mps 756 mmHg 86%
    11:00 +1°C° 0 mm 1 mps 756 mmHg 85%
    12:00 +1°C° 0 mm 1 mps 756 mmHg 83%
    13:00 +1°C° 0 mm 1 mps 756 mmHg 82%
    14:00 +1°C° 0 mm 1 mps 756 mmHg 82%
    15:00 +1°C° 0 mm 1 mps 756 mmHg 83%
    16:00 +1°C° 0 mm 1 mps 756 mmHg 83%
    17:00 +1°C° 0 mm 1 mps 756 mmHg 84%
    18:00 -2°C° 0 mm 2 mps 755 mmHg 85%
    19:00 -2°C° 0 mm 2 mps 755 mmHg 85%
    20:00 -2°C° 0 mm 3 mps 755 mmHg 86%
    21:00 -2°C° 0 mm 3 mps 755 mmHg 87%
    22:00 -2°C° 0 mm 3 mps 755 mmHg 88%
    23:00 -2°C° 0 mm 3 mps 754 mmHg 90%

    Day after tomorrow, 22 January, Tuesday

    Time Temperature Precipitation Wind Pressure Humidity
    00:00 -2°C° 0 mm 3 mps 754 mmHg 92%
    01:00 -1°C° 0 mm 3 mps 754 mmHg 93%
    02:00 -1°C° 0 mm 3 mps 753 mmHg 94%
    03:00 -1°C° 0 mm 3 mps 753 mmHg 95%
    04:00 -1°C° 0 mm 3 mps 753 mmHg 96%
    05:00 -1°C° 0 mm 3 mps 753 mmHg 95%
    06:00 0°C° 0 mm 3 mps 752 mmHg 95%
    07:00 0°C° 0 mm 3 mps 752 mmHg 94%
    08:00 0°C° 0 mm 3 mps 752 mmHg 93%
    09:00 -1°C° 0 mm 4 mps 752 mmHg 92%
    10:00 0°C° 0 mm 4 mps 752 mmHg 91%
    11:00 0°C° 0 mm 4 mps 752 mmHg 87%
    12:00 +1°C° 0 mm 4 mps 752 mmHg 83%
    13:00 +3°C° 0 mm 4 mps 751 mmHg 80%
    14:00 +1°C° 0 mm 4 mps 751 mmHg 78%
    15:00 +1°C° 0 mm 4 mps 751 mmHg 77%
    16:00 +1°C° 0 mm 4 mps 750 mmHg 75%
    17:00 +1°C° 0 mm 4 mps 750 mmHg 77%
    18:00 0°C° 0 mm 4 mps 751 mmHg 78%
    19:00 0°C° 0 mm 4 mps 751 mmHg 79%
    20:00 -1°C° 0 mm 4 mps 751 mmHg 81%
    21:00 -1°C° 0 mm 4 mps 751 mmHg 83%
    22:00 -1°C° 0 mm 4 mps 750 mmHg 85%
    23:00 -1°C° 0 mm 4 mps 750 mmHg 86%

    23 January, Wednesday

    Time Temperature Precipitation Wind Pressure Humidity
    00:00 -1°C° 0 mm 4 mps 750 mmHg 87%
    01:00 -2°C° 0 mm 4 mps 750 mmHg 87%
    02:00 -2°C° 0 mm 4 mps 750 mmHg 87%
    03:00 -2°C° 0 mm 4 mps 750 mmHg 87%
    04:00 -1°C° 0 mm 3 mps 750 mmHg 86%
    05:00 -1°C° 0 mm 3 mps 750 mmHg 85%
    06:00 -2°C° 0 mm 4 mps 750 mmHg 84%
    07:00 -2°C° 0 mm 4 mps 750 mmHg 83%
    08:00 -2°C° 0 mm 4 mps 750 mmHg 80%
    09:00 -1°C° 0 mm 4 mps 750 mmHg 78%
    10:00 -1°C° 0 mm 4 mps 750 mmHg 76%
    11:00 0°C° 0 mm 4 mps 750 mmHg 74%
    12:00 +1°C° 0 mm 4 mps 750 mmHg 73%
    13:00 +1°C° 0 mm 4 mps 750 mmHg 72%
    14:00 +1°C° 0 mm 4 mps 750 mmHg 76%
    15:00 0°C° 0 mm 5 mps 750 mmHg 81%
    16:00 -1°C° 0 mm 5 mps 751 mmHg 85%
    17:00 -3°C° 0 mm 6 mps 751 mmHg 84%
    18:00 -4°C° 0 mm 6 mps 752 mmHg 83%
    19:00 -7°C° 0 mm 7 mps 752 mmHg 82%
    20:00 -8°C° 0 mm 7 mps 753 mmHg 74%
    21:00 -8°C° 0 mm 7 mps 753 mmHg 65%
    22:00 -9°C° 0 mm 7 mps 754 mmHg 57%
    23:00 -11°C° 0 mm 7 mps 754 mmHg 56%

    24 January, Thursday

    Time Temperature Precipitation Wind Pressure Humidity
    00:00 -10°C° 0 mm 6 mps 755 mmHg 55%
    01:00 -10°C° 0 mm 6 mps 755 mmHg 54%
    02:00 -11°C° 0 mm 6 mps 755 mmHg 55%
    03:00 -11°C° 0 mm 6 mps 756 mmHg 55%
    04:00 -11°C° 0 mm 6 mps 756 mmHg 56%
    05:00 -11°C° 0 mm 6 mps 756 mmHg 58%
    06:00 -11°C° 0 mm 6 mps 757 mmHg 61%
    07:00 -11°C° 0 mm 6 mps 757 mmHg 64%
    08:00 -10°C° 0 mm 6 mps 758 mmHg 66%
    09:00 -10°C° 0 mm 6 mps 758 mmHg 69%
    10:00 -9°C° 0 mm 6 mps 759 mmHg 72%
    11:00 -9°C° 0 mm 6 mps 759 mmHg 69%
    12:00 -9°C° 0 mm 6 mps 759 mmHg 67%
    13:00 -9°C° 0 mm 6 mps 759 mmHg 64%
    14:00 -9°C° 0 mm 6 mps 760 mmHg 64%
    15:00 -9°C° 0 mm 6 mps 760 mmHg 65%
    16:00 -9°C° 0 mm 6 mps 760 mmHg 65%
    17:00 -9°C° 0 mm 6 mps 760 mmHg 68%
    18:00 -9°C° 0 mm 6 mps 760 mmHg 71%
    19:00 -11°C° 0 mm 7 mps 761 mmHg 73%
    20:00 -9°C° 0 mm 7 mps 761 mmHg 75%
    21:00 -9°C° 0 mm 7 mps 761 mmHg 77%
    22:00 -9°C° 0 mm 7 mps 761 mmHg 79%
    23:00 -9°C° 0 mm 7 mps 761 mmHg 78%

    25 January, Friday

    Time Temperature Precipitation Wind Pressure Humidity
    00:00 -9°C° 0 mm 7 mps 761 mmHg 76%
    01:00 -11°C° 0 mm 7 mps 761 mmHg 75%
    02:00 -11°C° 0 mm 7 mps 760 mmHg 73%
    03:00 -11°C° 0 mm 7 mps 760 mmHg 71%
    04:00 -11°C° 0 mm 7 mps 760 mmHg 69%
    05:00 -11°C° 0 mm 7 mps 760 mmHg 68%
    06:00 -11°C° 0 mm 7 mps 759 mmHg 67%
    07:00 -11°C° 0 mm 7 mps 759 mmHg 66%
    08:00 -11°C° 0 mm 7 mps 759 mmHg 62%
    09:00 -10°C° 0 mm 8 mps 759 mmHg 59%
    10:00 -10°C° 0 mm 8 mps 759 mmHg 55%
    11:00 -10°C° 0 mm 8 mps 759 mmHg 52%
    12:00 -8°C° 0 mm 8 mps 758 mmHg 49%
    13:00 -8°C° 0 mm 8 mps 758 mmHg 45%
    14:00 -7°C° 0 mm 8 mps 757 mmHg 45%
    15:00 -7°C° 0 mm 8 mps 757 mmHg 46%
    16:00 -7°C° 0 mm 8 mps 756 mmHg 46%
    17:00 -7°C° 0 mm 8 mps 756 mmHg 46%
    18:00 -7°C° 0 mm 8 mps 756 mmHg 46%
    19:00 -8°C° 0 mm 8 mps 755 mmHg 46%
    20:00 -8°C° 0 mm 7 mps 755 mmHg 45%
    21:00 -8°C° 0 mm 7 mps 755 mmHg 45%
    22:00 -8°C° 0 mm 7 mps 754 mmHg 44%
    23:00 -8°C° 0 mm 7 mps 754 mmHg 45%
    Show more